Theta_e
315 315 315 315 314 313 313 312 312 311 309 321 320 324 318 311 308 316 320 320 318 312 305 307 307 304 305 308 306 307 306 305 306 305 306 304 305 304 303 303 302 303 303 301 301 302 299 300 299 301 302 302 303 305 306 306 307 306 304 304 305 308 302 300 300 302 303 306 307 307 307 306 305 306 307 305 304 306 305 304 307 303 304 303 303 301 303
315 315 315 315 314 312 313 312 312 311 310 317 323 321 315 311 311 313 318 321 318 309 304 302 303 304 306 305 304 306 305 305 304 304 305 304 304 303 303 304 306 302 305 303 301 303 297 301 300 300 302 301 305 306 307 308 305 305 303 303 305 299 304 301 297 297 298 299 302 303 306 305 303 304 306 306 307 306 307 306 307 302 304 304 302 297 303
315 315 315 314 313 313 312 311 312 312 311 314 321 319 315 314 313 313 314 319 316 307 308 306 303 304 303 304 302 303 303 305 305 305 304 306 305 304 302 304 304 303 305 303 304 303 302 299 303 303 302 301 305 305 306 307 305 305 306 311 308 303 302 301 295 292 290 289 291 293 296 300 303 304 303 305 304 305 304 301 305 297 305 307 304 302 309
315 315 315 314 313 313 312 312 312 312 311 308 323 322 318 310 308 309 310 314 312 310 312 309 307 304 305 302 302 303 301 303 305 306 304 306 305 306 305 305 306 303 303 301 301 301 303 301 300 302 301 302 303 304 305 304 304 309 312 309 307 303 303 303 302 298 296 298 300 303 305 303 300 300 301 302 304 306 305 305 302 299 304 303 308 308 307
315 315 315 314 314 312 312 312 312 312 310 309 320 324 318 312 307 308 304 310 309 307 310 307 307 304 305 303 302 300 301 302 304 306 303 304 305 304 305 303 303 302 302 300 301 302 301 304 302 301 302 303 303 305 305 305 306 309 309 306 306 304 299 301 301 301 300 300 299 301 302 301 301 299 300 301 303 305 304 301 300 309 304 298 309 312 308
315 316 315 314 313 313 312 312 311 311 310 309 324 317 314 306 308 311 312 305 303 306 304 308 306 305 307 303 304 302 301 302 301 303 305 306 305 304 304 304 304 304 303 302 300 301 302 303 301 303 303 302 302 302 304 304 304 307 305 307 305 303 298 301 300 299 300 300 300 300 300 300 300 300 299 300 302 304 303 304 306 308 303 301 309 312 309
315 315 315 315 313 313 313 313 312 310 310 312 327 315 313 312 310 309 312 307 306 306 305 307 306 305 306 304 305 302 301 299 301 303 303 304 303 305 302 301 303 303 304 304 303 303 298 300 304 303 301 302 301 301 301 303 305 305 305 305 307 303 299 301 301 299 299 299 299 300 299 298 299 299 300 300 301 303 305 305 307 307 307 310 311 311 310
315 315 315 315 314 314 314 312 312 311 309 323 319 315 312 310 312 307 311 311 308 308 308 307 307 303 305 305 302 304 302 301 303 304 304 301 301 306 302 302 303 303 303 305 303 304 305 303 301 304 304 302 304 303 304 303 304 304 303 303 307 300 299 301 300 298 298 298 299 299 298 298 297 299 300 300 301 303 305 306 307 308 307 311 310 309 307
315 315 315 315 314 313 314 313 312 311 311 326 317 314 316 315 317 318 313 305 306 309 308 308 308 305 307 305 303 305 302 302 304 303 306 305 302 304 302 303 303 304 305 305 304 306 306 306 305 305 305 302 305 304 304 305 302 304 302 303 304 301 300 302 300 296 296 299 297 298 298 298 298 298 299 299 299 300 304 304 307 306 305 309 310 308 306
315 315 315 315 314 314 314 313 312 311 313 325 321 313 321 323 318 320 316 305 307 307 307 308 307 301 304 306 304 305 302 304 305 303 304 305 306 306 304 304 304 303 304 304 305 307 307 307 308 308 308 308 307 307 306 305 304 304 303 304 301 302 300 299 298 294 295 299 298 297 297 296 294 296 299 300 301 303 305 307 309 309 309 307 306 308 313
315 315 315 314 314 315 315 314 314 311 320 325 325 316 318 315 317 318 316 307 307 308 308 305 305 303 305 305 304 305 304 304 307 304 302 305 304 306 307 305 306 305 304 306 309 309 309 309 309 309 307 306 305 305 305 304 304 304 304 302 302 303 302 300 301 294 296 298 297 297 295 288 290 302 304 303 301 302 304 305 307 309 310 308 309 313 314
315 315 315 314 314 314 315 315 313 311 312 325 329 321 322 325 323 322 313 306 302 308 307 304 306 305 305 304 305 305 305 304 304 308 303 304 305 306 306 306 309 303 306 310 310 310 309 308 307 308 306 306 305 305 304 303 304 306 305 302 303 301 300 299 302 296 295 298 297 292 287 290 302 306 307 307 307 307 305 309 309 310 312 312 312 312 313
314 315 315 314 314 314 314 314 314 312 311 320 327 321 324 327 324 319 313 310 305 307 306 305 307 306 306 307 305 305 305 305 307 307 306 305 305 307 308 307 305 304 309 308 308 307 304 302 303 304 302 303 303 304 303 303 303 304 305 305 303 301 298 300 299 298 299 296 294 285 288 300 303 304 305 307 306 307 308 306 308 310 311 312 311 311 312
314 315 314 314 314 314 314 315 314 314 311 314 324 325 324 327 320 318 315 310 305 306 307 306 306 306 307 307 308 307 307 307 308 309 306 308 306 305 307 308 307 309 310 309 307 307 304 303 299 299 299 301 301 300 301 303 304 303 303 304 304 304 303 301 297 300 293 295 294 292 300 299 300 299 303 302 300 304 305 299 304 309 310 311 311 311 312
314 314 314 314 314 314 314 315 314 314 313 310 323 328 326 326 326 320 322 316 306 305 309 305 307 308 307 307 308 306 307 306 306 306 308 309 308 309 310 310 312 311 309 309 305 306 304 302 298 296 298 296 292 296 302 299 303 304 305 305 305 306 301 302 297 296 298 294 292 293 293 290 296 303 307 306 307 309 309 306 302 309 310 311 310 309 309
314 314 314 314 314 314 314 314 314 313 313 310 325 327 328 329 330 327 321 316 312 302 307 309 309 307 308 307 307 307 307 306 308 306 305 308 309 307 310 313 313 312 309 305 307 306 303 298 296 296 294 296 300 297 295 302 299 302 304 304 304 304 305 304 298 296 296 294 291 291 289 293 303 303 306 309 310 309 309 302 298 308 309 311 311 309 309
313 314 314 314 314 314 314 314 314 313 313 310 320 327 325 331 329 325 323 318 313 304 308 309 310 309 309 307 306 306 309 307 307 303 304 306 307 309 310 311 314 310 311 306 306 302 299 297 299 299 300 301 296 295 301 298 297 298 302 302 301 300 300 300 297 296 296 295 291 290 296 295 303 306 306 305 308 306 302 290 292 308 309 309 310 309 309
313 314 314 313 313 313 314 314 314 314 313 312 317 324 327 331 330 330 324 316 311 308 309 310 310 309 309 310 309 311 310 309 308 308 306 308 308 307 309 307 307 310 308 304 306 299 299 299 296 294 294 302 302 299 291 298 296 297 297 298 297 297 298 298 294 295 295 295 294 296 297 305 307 306 307 306 307 302 293 288 301 309 310 310 311 310 310
313 313 313 313 313 313 314 314 314 313 313 310 317 328 326 329 331 329 325 317 313 308 311 312 312 311 313 313 312 312 313 312 311 305 304 304 307 310 310 311 311 305 309 302 304 300 298 299 302 300 297 300 301 294 301 296 295 301 300 296 297 298 298 299 298 295 294 294 292 293 297 305 307 308 308 308 301 291 291 305 312 311 309 310 310 310 311
313 313 313 313 313 313 313 314 314 313 313 311 314 322 325 329 331 328 322 315 315 313 314 313 311 311 312 311 310 308 310 308 309 306 304 301 311 310 306 303 308 306 307 307 300 303 299 297 300 301 296 298 300 303 299 300 304 298 298 301 297 298 295 294 294 297 297 296 293 291 287 302 309 307 305 306 297 302 309 310 311 311 309 309 309 311 310
312 313 313 313 313 312 313 314 314 313 313 313 311 321 323 332 330 329 327 322 317 311 314 318 315 313 314 313 312 313 312 310 312 307 309 308 314 308 297 300 306 306 304 305 298 299 301 298 300 299 302 302 302 299 294 298 300 305 303 300 299 304 296 296 297 300 293 293 291 290 300 305 310 307 301 304 306 311 312 310 307 310 309 310 309 311 312
312 312 312 312 312 312 312 313 314 313 313 313 310 321 321 328 330 330 327 324 318 315 315 318 317 316 318 317 318 318 316 315 317 317 312 311 313 308 310 309 309 308 310 309 305 304 304 302 304 302 298 299 305 297 300 295 293 302 304 304 292 304 301 304 296 302 297 295 299 304 308 309 309 309 310 312 313 314 313 312 309 309 310 311 310 311 313
312 312 312 312 312 312 312 313 313 313 312 313 314 324 320 321 325 329 328 320 324 323 323 320 319 319 318 318 320 321 320 320 319 318 317 311 310 311 309 309 309 313 313 312 306 305 306 305 301 304 301 302 301 299 300 298 296 301 297 303 301 309 308 310 306 302 307 307 308 310 308 308 308 310 312 312 312 313 313 311 309 310 312 312 310 312 312
312 312 312 312 312 311 312 312 313 313 312 313 313 321 323 323 324 325 324 323 318 313 318 318 314 314 313 314 317 320 319 318 319 321 323 320 308 310 314 314 315 313 312 314 315 308 308 308 306 306 299 304 306 300 297 294 297 303 301 301 302 305 307 305 299 304 299 294 307 306 306 308 308 308 310 311 312 312 312 311 311 312 312 311 312 311 312
312 312 312 312 312 311 311 312 312 312 312 312 314 321 323 325 327 324 321 314 313 312 306 312 310 316 316 317 319 317 319 322 322 320 319 319 316 310 309 316 317 313 314 316 318 312 309 303 306 304 298 305 306 298 304 298 298 305 298 301 302 301 308 302 302 302 300 299 305 306 308 309 309 309 308 307 310 312 312 313 313 313 313 312 312 312 310
311 312 312 312 311 311 311 311 312 312 312 312 312 320 322 323 324 325 323 324 320 318 309 306 312 316 318 315 314 318 321 320 319 319 318 318 318 318 317 321 319 319 317 317 315 310 308 307 307 306 301 301 308 301 301 303 302 307 301 301 307 308 306 298 302 299 302 305 307 308 309 308 308 308 309 310 309 310 310 312 312 311 310 311 311 311 311
311 311 311 311 311 311 311 311 312 312 311 311 316 321 321 322 323 321 320 320 315 311 311 309 314 316 317 313 316 318 317 318 318 318 318 317 317 318 317 316 316 318 316 314 314 310 309 307 305 300 302 303 306 305 304 303 303 303 301 305 308 306 300 305 303 299 298 300 303 308 300 300 305 307 309 310 310 310 310 311 310 310 310 311 311 310 311
311 311 311 311 311 311 311 311 312 311 311 311 315 321 322 322 323 324 324 324 318 310 309 310 310 313 316 314 316 319 319 318 317 317 316 317 318 316 316 316 317 314 313 311 306 306 306 303 302 306 305 306 302 300 306 308 308 305 304 304 307 304 306 304 301 299 298 305 306 309 309 308 308 309 310 311 311 310 310 309 309 310 310 311 310 309 310
311 311 310 311 310 310 310 311 312 311 311 310 321 321 321 323 325 322 324 325 323 316 314 314 316 312 309 312 317 318 319 320 319 318 317 317 317 317 316 316 316 314 313 310 310 309 307 308 310 305 304 307 303 300 301 296 297 298 303 307 306 308 308 308 308 307 309 309 311 310 309 307 308 310 311 310 311 310 309 310 310 310 310 310 310 310 308
310 310 310 310 310 310 310 311 311 311 312 318 321 320 317 318 323 324 322 324 323 319 312 311 308 311 316 314 313 317 318 320 319 318 317 317 316 317 317 317 316 318 315 311 310 305 307 307 309 311 310 312 302 300 297 298 296 301 305 308 309 309 309 309 311 308 308 313 313 312 310 310 311 311 311 311 311 311 310 309 309 310 309 310 309 309 309
310 310 311 310 310 310 310 310 310 310 310 319 319 315 312 309 317 323 317 324 324 319 316 313 310 312 313 316 317 316 318 317 318 317 317 317 317 317 319 319 318 317 309 310 309 308 308 303 306 308 311 309 305 299 297 296 295 298 303 307 307 308 308 308 311 312 312 312 313 313 312 311 312 310 309 310 310 311 310 311 311 310 312 311 309 309 309
310 310 310 311 310 310 310 310 311 311 317 320 317 316 316 317 320 321 320 320 323 318 313 310 310 309 310 312 316 318 317 318 317 317 318 318 314 316 316 316 311 314 313 308 306 307 306 308 305 306 305 307 304 300 300 296 293 296 304 306 308 309 310 310 311 312 313 313 312 311 309 309 309 307 306 309 309 310 310 310 310 310 308 309 310 309 309
310 311 311 311 311 310 311 311 311 312 320 316 309 310 311 309 310 315 318 324 322 317 317 313 308 309 306 311 316 318 318 317 315 314 310 314 311 314 311 316 313 312 313 308 304 301 306 305 306 305 308 310 303 302 300 295 299 304 306 307 308 308 310 311 311 312 311 313 312 307 305 306 308 310 310 311 310 310 310 309 309 311 310 308 307 308 309
311 311 312 311 311 310 311 311 311 310 312 314 318 319 320 313 316 310 321 324 319 320 318 311 308 307 308 314 308 314 317 310 311 312 307 313 317 313 308 309 313 308 312 305 309 307 308 305 300 301 306 304 304 300 293 299 304 304 306 308 310 310 310 310 311 311 312 311 311 312 311 310 311 311 310 309 310 311 311 310 309 307 307 307 307 307 308
311 312 311 311 312 312 312 311 317 318 320 319 321 323 321 310 310 315 321 321 312 312 312 313 311 307 305 307 305 310 316 311 310 312 307 311 316 310 312 308 307 303 304 310 307 305 302 303 307 301 300 305 298 293 294 302 305 306 307 308 310 310 309 308 309 311 311 311 311 311 311 311 309 307 308 308 308 309 309 309 309 307 306 306 306 307 307
311 312 312 312 312 313 318 316 317 321 319 316 318 317 314 315 315 323 326 325 320 313 310 309 308 306 305 301 301 310 316 311 314 313 314 311 310 315 311 308 302 307 311 306 302 305 301 308 304 297 303 297 293 295 300 307 307 308 308 309 311 310 310 311 311 312 311 312 311 311 310 310 308 308 308 308 308 308 308 308 308 308 307 306 306 306 307
311 312 313 313 315 317 318 318 322 321 319 321 320 318 316 319 325 325 323 319 321 324 313 310 307 307 305 304 308 314 311 302 309 307 310 307 304 310 308 307 301 305 306 304 304 302 306 309 304 297 295 295 296 307 309 310 310 309 310 310 310 311 312 313 313 313 311 310 309 308 308 307 307 308 307 307 307 308 307 306 307 307 306 306 307 306 306
312 312 317 318 318 316 315 317 319 320 317 315 315 318 318 317 313 315 314 312 316 317 316 314 308 311 315 308 304 314 310 306 309 304 307 308 304 305 310 305 302 302 295 298 304 311 308 305 303 297 300 307 309 310 310 311 312 312 311 311 311 312 313 313 313 311 309 308 307 307 307 306 306 307 307 307 307 306 306 307 308 308 308 307 307 308 307
311 319 319 319 317 312 314 318 322 316 320 322 322 316 313 315 312 309 311 312 313 309 315 311 308 311 308 307 308 316 311 306 305 307 301 310 303 298 304 296 304 303 297 297 302 308 298 301 301 300 298 304 305 308 311 311 310 312 313 312 314 314 314 313 314 312 310 309 309 310 310 307 307 307 307 307 307 308 309 309 308 308 308 308 307 307 306
320 318 315 314 313 315 322 320 316 319 321 314 317 313 308 313 307 301 313 305 305 311 311 307 311 310 310 306 304 306 316 310 303 302 303 303 310 298 303 301 302 300 293 294 298 305 296 290 298 297 294 300 303 306 307 307 307 308 311 313 314 314 315 313 313 314 313 313 312 311 311 312 311 310 309 308 308 307 309 310 309 309 310 309 308 307 306
318 318 317 315 317 320 321 323 323 319 315 311 310 311 310 301 312 312 310 304 303 306 311 310 311 310 313 313 312 306 316 316 315 313 308 301 310 308 301 297 305 297 294 291 301 302 301 297 295 293 294 299 302 305 306 307 306 306 308 308 312 313 313 314 314 313 312 311 311 311 312 312 310 311 309 310 309 309 309 308 309 309 309 309 308 308 308
319 319 320 321 321 322 321 318 316 313 313 315 306 297 303 307 311 310 309 299 300 306 309 308 305 307 307 309 310 310 311 317 314 312 305 301 308 303 300 301 302 296 289 300 303 300 299 291 291 293 302 303 304 308 308 307 309 310 310 312 312 312 312 312 312 312 312 310 310 311 311 309 309 310 309 308 308 308 310 311 310 310 310 310 310 309 309
307 311 319 318 317 316 317 306 312 311 298 298 297 294 303 297 303 302 304 309 312 309 309 315 313 314 315 317 313 315 312 315 310 308 305 301 306 305 299 298 296 289 296 305 299 295 292 290 289 295 302 304 304 304 306 309 307 307 307 310 310 310 309 308 310 311 310 310 310 309 311 310 310 310 310 308 308 310 311 311 311 310 310 310 309 309 308
319 318 315 317 312 313 313 294 313 306 299 299 296 292 299 300 302 303 301 302 308 307 310 305 308 306 301 312 308 310 312 310 311 308 305 308 301 299 297 291 294 301 305 299 297 291 291 293 295 298 301 305 305 305 304 305 305 308 309 310 309 308 308 308 308 307 307 307 309 311 312 313 314 314 312 310 309 308 309 310 311 311 311 310 309 308 308
314 312 311 307 302 308 300 292 311 301 293 298 300 303 303 299 300 304 303 310 310 308 311 312 311 309 306 312 312 311 308 305 311 302 300 304 300 300 295 293 300 300 295 292 294 294 293 291 300 302 302 301 303 306 306 306 306 306 307 308 308 308 308 307 306 306 305 306 306 305 306 310 311 311 311 312 311 309 307 308 310 310 310 309 309 309 309
312 304 302 296 291 298 298 294 297 294 304 307 305 307 306 307 306 306 311 313 311 311 309 309 308 309 307 311 303 304 309 309 304 304 305 304 297 294 302 305 302 294 292 291 288 286 289 295 299 301 302 304 304 305 306 307 306 306 305 304 304 305 305 305 305 305 305 305 305 306 306 306 306 307 308 309 310 309 308 308 310 309 309 309 309 309 310
310 314 304 302 296 300 309 297 300 305 308 309 310 310 310 311 312 312 313 312 311 311 310 313 311 310 304 306 306 307 308 308 301 305 306 299 296 298 304 299 292 293 288 286 287 291 293 298 299 301 303 303 304 304 304 303 303 303 302 303 303 303 303 303 304 304 306 307 307 306 307 305 305 306 306 306 308 309 309 308 309 310 309 308 310 310 310
300 309 309 295 293 300 299 306 311 312 312 312 312 313 316 314 311 310 313 314 312 311 310 310 308 307 306 312 307 300 301 305 301 302 304 300 302 298 291 293 293 295 293 288 289 295 296 300 300 301 302 302 302 301 301 301 301 301 301 301 301 301 302 304 305 306 306 304 304 305 307 308 307 304 305 306 307 310 309 309 308 310 309 309 309 310 309
314 303 299 299 305 307 308 312 310 306 309 312 315 313 313 311 311 310 313 314 311 311 311 310 307 304 300 303 300 299 296 303 295 294 299 299 294 289 290 287 289 287 295 298 297 298 299 301 303 302 302 301 301 301 301 301 301 300 300 300 300 301 303 303 304 304 304 304 304 305 305 307 307 309 306 305 305 306 308 308 307 308 309 309 309 310 309
303 302 308 302 304 305 309 311 309 306 310 309 310 311 312 308 311 314 314 312 313 313 314 311 310 305 302 302 295 298 296 299 298 296 297 294 295 296 294 288 291 290 294 298 299 301 302 302 302 300 300 301 301 301 301 300 301 301 300 300 301 302 302 302 302 303 303 304 304 304 306 306 306 306 307 305 306 307 306 307 309 307 308 310 308 308 308
313 303 306 312 307 311 310 304 305 305 307 308 311 311 310 310 310 311 315 314 314 311 309 302 303 301 296 295 293 290 293 300 298 297 295 294 297 296 292 289 293 298 299 301 302 302 302 301 300 299 300 300 300 301 301 301 300 300 300 300 300 301 301 302 301 301 302 302 303 303 304 304 306 307 308 309 309 306 305 306 308 308 308 306 308 308 308
303 300 305 311 312 311 312 312 312 311 313 312 312 315 314 313 315 315 317 314 313 308 302 306 305 298 293 292 296 299 302 298 293 295 292 295 300 296 295 296 299 300 301 301 300 300 300 301 301 300 300 299 299 300 301 301 300 300 300 300 301 302 302 302 301 300 301 301 301 301 303 305 306 306 307 307 307 308 307 306 307 308 307 307 309 309 307
Wind_Speed
19 20 20 21 22 22 23 23 23 22 23 10 8 8 8 3 5 5 3 2 8 11 3 1 3 3 4 4 5 1 3 6 5 5 6 1 4 2 4 5 3 3 3 4 4 1 4 4 2 4 8 8 8 7 5 5 7 8 3 6 3 5 6 5 5 5 6 6 5 4 5 7 8 9 5 4 7 6 9 10 4 8 11 11 8 6 6
19 19 20 21 21 22 23 22 21 19 15 6 8 8 5 3 3 6 5 7 4 9 1 3 4 4 3 2 4 4 6 7 6 6 6 7 4 6 4 4 8 5 2 2 2 2 4 3 3 5 3 5 5 6 5 8 3 8 8 7 7 7 4 7 5 4 5 4 5 7 7 7 8 8 5 4 9 10 9 9 4 9 11 12 8 9 9
19 19 20 21 21 22 23 22 21 19 15 9 5 7 7 2 3 2 4 3 5 3 4 2 4 3 4 2 4 4 4 5 7 7 7 5 5 1 4 6 2 3 1 2 0 2 6 5 4 5 6 7 3 7 7 8 6 8 9 11 6 5 2 6 7 9 10 10 11 11 11 10 9 1 1 5 9 7 7 9 5 5 6 9 7 9 12
18 19 19 20 21 22 24 23 22 20 15 12 5 6 8 4 2 3 4 1 4 5 3 6 2 4 3 3 3 1 4 5 3 7 6 7 4 7 2 2 2 3 4 3 2 4 1 5 5 4 6 6 4 4 6 7 8 8 10 11 6 3 1 2 3 5 7 7 8 5 7 10 10 8 3 1 5 5 8 9 8 10 8 4 10 18 16
18 19 20 20 21 22 24 24 24 22 15 9 5 8 6 3 4 4 3 1 4 4 3 4 3 5 2 2 3 4 4 2 6 7 2 2 5 4 7 2 4 1 3 2 3 1 5 4 8 4 6 5 7 3 3 6 7 9 7 4 6 2 6 4 2 4 5 7 5 4 7 2 4 2 5 2 3 4 8 9 9 6 9 7 9 19 19
19 19 21 21 21 23 24 25 26 25 21 11 5 5 5 2 3 1 4 5 3 2 5 5 5 3 3 5 3 4 3 3 4 5 4 2 2 5 3 1 6 4 5 2 1 2 4 3 6 5 4 6 6 7 3 4 2 8 0 2 5 5 6 5 6 2 1 3 7 7 4 4 2 2 3 3 1 5 10 8 4 8 10 4 14 14 17
20 20 21 22 20 22 24 25 26 26 28 17 6 6 3 4 3 4 4 3 5 5 5 5 4 6 5 4 4 3 3 4 5 7 3 2 3 7 3 2 3 2 0 5 3 2 3 6 3 1 5 3 6 5 5 3 1 2 2 3 3 5 6 4 4 3 5 2 2 1 3 2 5 6 3 3 7 4 5 3 5 5 2 12 14 16 16
19 20 20 21 20 21 23 25 26 27 28 18 2 7 8 6 6 4 4 4 3 2 1 1 1 6 1 2 5 3 3 5 3 4 8 1 4 3 4 3 3 2 1 2 2 5 6 3 7 2 2 3 4 1 4 3 5 3 2 3 3 5 2 1 5 6 5 4 4 7 4 3 7 5 6 4 4 3 4 3 1 2 6 11 17 17 15
17 18 20 20 20 20 21 23 25 28 25 5 6 5 7 5 5 5 6 3 4 2 1 1 1 4 2 2 4 3 2 5 3 6 6 8 4 4 5 3 2 2 4 5 6 5 5 7 7 3 4 4 4 5 4 5 2 1 1 3 1 5 2 3 6 7 7 6 6 5 5 6 8 6 8 8 8 8 4 6 4 5 8 13 17 14 12
16 17 19 20 19 19 20 20 24 26 26 7 7 7 6 4 1 3 6 1 1 3 3 1 6 5 5 6 4 3 4 2 5 3 3 4 6 5 3 2 2 4 2 5 6 6 5 5 4 5 3 2 2 1 2 4 5 2 2 3 5 4 5 4 6 8 8 8 5 5 4 7 9 11 10 9 8 5 4 2 3 2 7 12 11 8 10
15 16 17 18 19 19 19 19 20 22 15 9 8 8 8 8 7 6 5 4 3 3 3 6 6 5 4 2 4 2 4 2 3 7 4 1 4 3 5 1 5 4 3 3 3 4 4 5 3 2 3 3 2 3 2 4 5 4 4 2 3 2 5 5 5 6 7 8 5 3 6 10 6 1 11 10 9 5 6 5 5 3 3 3 6 10 13
15 16 16 17 17 18 18 18 19 19 15 8 8 5 7 8 7 6 6 4 3 1 3 7 6 4 2 3 2 3 3 3 5 3 4 4 5 2 1 3 7 3 5 2 3 1 2 4 6 3 5 2 4 3 5 4 4 4 5 6 2 4 4 7 3 7 8 6 3 6 10 6 9 6 8 5 2 6 4 8 6 7 10 11 14 13 12
14 15 16 16 16 17 16 17 17 17 17 11 8 7 8 8 6 7 6 7 3 3 4 5 2 4 4 4 5 6 4 4 5 5 5 3 3 3 6 5 4 5 3 2 1 4 5 3 2 2 2 4 3 4 6 6 5 3 5 4 5 3 6 5 4 7 6 6 6 7 5 9 5 7 4 6 2 2 6 8 5 4 7 10 10 10 7
13 14 16 15 16 16 17 17 16 18 18 14 8 7 7 8 8 7 5 6 4 2 4 4 4 4 2 4 4 4 3 4 4 2 4 1 3 4 4 5 4 2 2 1 2 4 4 4 5 5 5 5 5 5 5 0 1 4 6 4 5 6 5 4 5 7 8 7 7 6 8 6 8 6 6 5 6 7 7 6 8 5 3 8 11 11 9
12 14 15 15 15 14 15 15 16 18 18 18 8 5 7 8 7 6 6 6 3 3 2 3 5 4 2 3 3 3 5 3 5 4 4 1 2 4 5 3 2 3 1 6 3 4 5 3 6 6 6 6 5 6 5 6 4 4 3 3 5 4 7 2 7 6 6 7 9 9 8 9 10 9 9 5 4 3 5 6 7 7 6 3 10 8 9
11 13 14 14 14 14 14 15 15 16 17 20 8 5 5 8 8 6 6 5 6 1 5 4 3 1 2 3 1 6 3 2 1 2 4 3 2 3 3 1 1 3 2 3 3 5 5 6 6 5 4 2 4 2 4 7 5 5 5 5 6 5 6 6 7 5 7 8 8 8 6 4 8 11 10 6 5 2 4 7 8 8 9 5 10 11 9
11 12 13 13 13 13 13 14 14 14 15 15 9 6 5 8 7 7 7 5 6 5 4 3 2 1 3 4 4 6 5 3 1 3 3 5 4 3 4 2 2 2 2 5 4 6 5 6 5 6 0 2 2 2 3 4 4 6 5 6 8 7 7 6 7 10 7 7 8 8 6 3 10 11 10 8 4 5 7 8 7 12 10 8 7 6 10
11 11 12 12 12 12 12 12 14 13 14 15 10 6 4 5 7 8 6 5 6 3 5 3 3 3 2 6 4 5 2 2 4 3 3 3 3 3 3 1 5 5 2 6 3 5 6 5 6 5 2 5 2 2 4 1 6 5 6 6 7 8 7 8 8 8 8 8 8 7 4 7 11 12 10 9 5 5 7 8 8 9 10 5 7 7 7
9 10 11 12 11 12 11 11 12 13 14 14 11 7 1 6 6 7 6 5 4 1 6 5 3 3 4 3 5 3 4 6 5 4 2 4 2 3 2 2 5 2 3 5 3 6 6 5 3 5 4 5 3 5 2 4 5 4 4 6 6 7 7 7 9 9 9 8 9 7 2 5 9 8 9 10 7 8 6 9 7 8 10 6 6 8 5
9 10 11 11 11 11 11 10 11 12 13 12 9 5 3 3 4 6 7 7 5 5 4 4 2 2 1 4 1 3 4 5 3 5 4 2 1 5 4 5 6 5 5 3 7 4 6 5 3 1 7 3 3 2 4 3 3 2 6 5 7 5 7 8 9 7 7 7 8 5 7 7 6 11 8 7 8 5 8 8 9 10 9 8 6 6 7
8 10 10 10 11 10 10 10 10 11 12 12 10 6 2 4 3 4 5 5 6 4 4 2 2 4 2 2 3 4 6 5 4 5 3 2 3 3 4 3 3 2 2 2 6 2 3 6 3 5 3 5 4 3 5 3 8 5 5 3 7 2 7 6 7 6 8 8 8 4 4 10 8 8 3 7 4 8 7 8 7 4 6 4 6 5 5
8 9 10 10 10 10 9 9 9 10 11 11 12 6 5 3 1 2 4 4 5 5 5 5 4 5 2 3 5 3 5 3 3 3 5 2 4 5 4 3 3 3 2 3 4 5 4 5 3 5 5 6 3 6 3 6 5 8 7 2 5 5 6 5 3 1 5 4 3 5 5 8 6 5 9 10 10 7 6 3 1 7 5 2 0 3 5
7 8 9 9 9 9 8 8 8 9 10 12 11 4 5 5 3 3 4 5 5 7 5 5 3 4 4 4 4 4 4 3 3 3 2 5 2 3 4 3 1 1 2 3 5 6 5 4 6 4 7 7 6 6 8 8 5 6 7 10 6 4 3 3 5 6 5 2 2 4 6 3 5 5 7 8 7 7 4 3 3 1 3 3 1 5 4
7 8 9 9 9 9 8 8 8 7 9 10 10 5 4 4 5 6 5 6 6 5 4 3 4 4 3 3 3 4 4 5 5 3 1 2 4 2 3 2 1 3 3 2 4 5 5 5 6 5 7 5 4 8 8 7 9 5 7 8 9 9 5 5 6 1 2 2 9 7 5 5 4 4 6 6 6 4 4 4 2 4 4 3 4 1 2
7 8 9 9 9 8 8 7 7 7 7 9 11 7 6 4 2 4 5 4 3 5 5 5 3 7 3 3 1 4 4 1 3 5 6 5 5 5 4 6 4 5 3 2 3 6 5 7 7 5 9 5 7 7 4 8 5 5 8 7 6 9 9 8 7 8 7 3 4 1 2 4 4 4 5 5 6 4 3 3 3 5 4 2 3 3 4
7 8 8 9 8 8 7 6 6 5 6 10 11 6 4 4 4 4 6 7 5 4 5 2 4 3 1 4 5 1 4 3 4 6 6 6 6 6 5 1 2 1 5 3 4 5 5 6 7 7 7 4 7 7 5 4 5 2 8 1 5 5 9 7 5 8 8 5 5 3 2 4 7 9 10 7 7 7 6 4 5 5 5 5 4 3 1
8 8 9 9 8 8 7 6 6 5 5 8 6 2 3 2 1 4 6 5 6 4 5 3 5 5 3 1 3 2 4 5 5 5 6 7 7 6 6 5 5 3 5 5 5 5 5 6 5 7 7 5 9 10 9 4 5 6 9 5 5 4 7 4 6 7 8 6 6 10 7 7 8 9 6 4 4 6 8 6 5 5 5 4 4 4 3
8 9 9 9 8 7 6 6 5 3 6 9 8 3 1 3 1 1 2 3 4 5 7 6 3 5 2 3 2 3 2 3 4 5 6 7 7 7 7 6 4 7 2 3 6 5 7 8 5 2 1 3 5 7 8 10 7 7 8 3 1 6 5 5 7 6 2 7 7 1 5 4 2 2 7 7 6 7 8 8 6 5 5 4 2 2 4
8 9 8 7 6 5 5 6 5 4 6 9 5 3 4 2 2 1 1 1 4 6 6 6 5 5 2 5 4 5 3 3 3 4 5 5 6 5 6 6 6 5 5 5 6 6 5 6 1 2 0 2 2 5 3 6 10 10 3 7 3 3 7 10 7 7 6 5 1 1 2 5 1 1 6 6 5 6 8 7 7 6 6 6 5 4 2
8 7 6 6 5 5 6 4 5 6 7 5 3 5 5 5 1 3 3 3 4 4 6 5 5 4 4 4 3 1 2 4 3 3 3 4 4 3 3 3 5 6 6 6 5 8 5 5 3 3 4 5 2 3 3 4 6 4 2 2 4 3 2 6 7 8 7 3 4 3 4 5 2 4 5 7 7 7 7 8 6 6 3 1 6 7 6
7 6 6 5 5 5 5 5 2 6 9 5 4 4 4 3 4 1 4 5 3 3 5 4 5 2 4 4 0 1 1 0 3 0 0 3 2 2 1 3 5 4 6 4 4 7 4 5 4 2 3 5 4 3 3 3 5 2 6 5 4 7 7 8 7 7 7 7 5 4 5 6 4 3 6 7 7 7 7 8 9 5 2 7 6 5 5
6 5 5 6 6 6 6 5 7 6 5 4 5 4 4 4 5 7 3 6 3 4 4 6 5 5 3 4 3 1 1 1 2 3 2 4 1 1 4 4 4 2 3 2 6 4 5 5 6 4 5 7 5 3 3 6 8 9 6 7 7 5 3 5 6 6 7 5 4 5 8 8 7 9 8 10 9 8 8 9 6 6 3 2 5 5 6
4 6 6 5 4 5 7 6 7 9 4 9 4 5 4 4 5 6 4 4 4 3 4 5 6 2 2 4 4 4 3 1 3 6 2 5 1 3 5 3 3 3 2 2 4 2 2 2 2 4 1 6 4 3 5 7 8 7 8 5 7 9 6 5 6 6 6 6 6 8 7 9 9 9 8 9 10 10 10 10 8 8 9 8 9 8 3
5 6 5 1 3 3 5 6 5 7 10 6 3 4 5 4 4 4 6 6 3 3 3 4 5 4 1 5 5 3 3 4 0 3 3 4 3 6 1 3 1 3 3 3 1 4 0 3 3 3 4 5 4 4 5 7 4 7 8 8 6 5 5 6 6 7 7 7 6 7 9 9 7 7 9 10 10 10 10 9 8 9 8 8 7 8 7
5 4 1 1 2 3 5 6 5 5 3 3 2 6 6 4 7 4 5 4 3 3 4 3 3 5 2 4 2 5 1 5 2 1 4 1 3 4 4 1 2 4 1 2 3 2 2 3 1 3 4 3 4 4 4 6 7 7 4 5 4 4 5 6 6 5 6 6 6 7 8 9 10 10 11 12 11 12 12 11 9 9 9 9 7 7 6
3 2 4 3 6 8 5 7 6 5 2 2 4 5 6 6 5 5 3 4 4 5 3 1 2 4 4 4 3 3 1 4 2 2 3 3 2 1 3 2 5 1 3 5 3 3 3 3 4 4 3 5 5 4 4 3 2 3 4 4 4 4 6 6 5 3 4 5 6 7 8 9 10 11 11 11 11 11 12 11 10 10 10 9 8 7 6
4 4 7 7 6 4 4 1 3 5 4 5 7 7 2 5 3 4 4 3 3 3 5 5 5 2 4 4 2 3 2 3 1 3 1 1 4 2 2 3 3 2 2 5 5 5 5 7 5 5 4 5 3 4 2 2 3 4 3 3 3 4 4 4 4 4 5 5 7 7 9 10 10 9 11 12 11 11 11 12 11 11 12 10 8 7 7
5 7 4 4 4 4 3 2 3 6 9 9 5 3 4 4 3 5 3 4 4 3 4 4 5 1 1 3 3 4 4 2 2 4 2 1 5 2 1 2 0 4 4 4 3 1 1 4 5 5 6 6 4 2 3 3 2 2 3 2 3 3 3 3 3 5 5 6 7 8 9 10 11 11 11 12 11 12 11 10 11 11 8 9 9 8 6
6 4 5 5 4 3 4 4 4 2 5 3 4 3 4 2 2 3 4 4 3 5 4 5 2 2 3 3 2 5 4 5 6 3 5 5 4 1 1 3 3 4 4 4 3 1 5 4 5 4 6 3 5 4 2 1 1 1 2 3 3 3 3 4 4 6 6 6 6 6 8 9 12 12 12 12 12 11 11 11 10 9 10 10 9 7 7
4 5 3 3 2 5 3 5 4 3 3 3 3 3 2 4 4 2 2 3 4 3 3 4 2 3 3 3 5 1 2 5 4 5 4 3 2 3 4 3 4 6 5 5 1 6 3 3 3 4 3 3 6 11 8 8 9 11 9 6 5 4 3 4 5 5 6 8 8 8 8 9 11 11 11 11 11 13 13 11 11 11 10 9 8 8 8
4 3 2 2 3 1 2 1 3 4 3 3 3 4 2 2 5 2 3 4 4 3 1 2 1 3 4 2 1 3 3 2 0 1 3 2 0 3 5 2 3 4 5 3 1 4 4 5 3 4 5 4 3 1 1 1 1 2 3 9 10 8 9 6 6 7 7 8 8 8 8 10 7 10 8 9 9 8 9 12 11 10 9 9 10 9 7
4 3 3 2 2 1 2 2 2 3 4 3 2 2 3 3 2 4 2 3 2 4 2 3 1 2 2 3 3 2 1 2 3 2 2 1 2 3 4 3 1 4 3 2 1 4 4 3 4 1 5 6 5 5 6 5 5 5 5 4 5 4 7 8 8 9 8 9 9 7 3 7 8 6 5 9 13 16 15 11 9 9 9 9 8 8 8
3 5 5 3 3 3 2 2 2 2 1 1 0 2 3 2 1 2 4 2 5 0 2 6 2 0 3 3 2 2 4 1 3 2 2 1 2 2 3 2 3 3 4 2 3 3 5 5 4 4 4 4 5 5 7 7 6 7 9 8 8 9 11 12 11 10 10 11 8 9 7 6 8 8 4 3 12 13 9 9 10 9 9 8 8 9 8
2 3 4 3 3 1 2 2 2 1 1 1 2 2 5 5 1 3 2 3 5 3 5 3 2 3 1 4 2 3 4 0 3 2 3 2 2 3 2 2 4 1 3 6 5 6 2 5 2 3 6 4 3 6 7 7 8 8 8 9 9 9 8 8 10 12 13 13 13 12 9 7 8 5 3 3 4 10 11 10 10 9 9 9 9 8 8
4 3 1 1 0 0 1 1 4 2 3 4 4 6 4 3 5 5 2 4 3 2 5 2 1 1 4 3 1 4 4 1 4 3 1 1 5 3 3 4 1 2 5 7 6 4 4 0 1 2 5 6 7 7 6 7 8 8 9 10 10 9 9 10 11 9 8 6 5 9 12 7 6 5 5 5 4 4 9 11 10 10 10 10 9 8 8
5 3 3 3 2 2 2 2 2 2 5 3 4 3 4 0 1 3 2 2 3 1 3 5 2 1 4 1 4 1 3 2 3 2 1 3 5 4 2 5 3 6 6 5 4 4 1 3 4 5 6 8 8 8 8 8 8 8 9 9 10 11 11 11 11 11 11 9 8 7 7 8 10 9 9 8 7 4 2 10 10 10 10 9 9 8 8
5 1 1 2 3 3 5 3 5 5 2 3 4 2 3 3 3 3 3 2 3 3 2 1 2 1 4 2 2 2 3 2 4 0 2 4 5 4 2 5 4 4 3 2 1 2 3 5 4 5 7 7 8 8 8 8 8 8 9 9 10 10 11 11 11 10 8 9 8 8 5 3 5 7 9 9 8 5 3 5 8 9 9 9 8 8 8
2 3 2 3 3 3 5 7 5 4 5 5 3 1 2 2 4 1 1 1 0 1 1 3 2 1 3 2 4 3 3 2 4 3 2 4 3 3 3 4 5 3 4 3 5 5 6 6 6 7 7 8 9 9 9 9 10 11 11 11 12 11 11 10 9 8 9 10 9 7 7 4 2 1 3 7 9 6 7 6 5 6 9 9 9 8 9
4 1 2 2 4 4 5 4 2 5 1 2 5 9 9 5 5 3 3 2 0 0 2 3 3 4 3 3 5 4 3 2 3 2 2 3 4 3 2 5 6 6 6 6 7 7 6 6 6 6 7 8 9 9 9 10 10 11 11 12 11 10 10 10 10 10 10 9 7 7 7 7 6 3 2 4 6 7 7 9 10 6 7 8 8 9 9
2 3 4 4 6 7 8 5 5 4 4 6 4 1 3 4 6 3 4 2 1 1 2 1 1 3 3 2 2 3 3 2 4 2 4 6 4 5 5 6 6 4 6 6 6 5 6 5 6 7 8 9 10 11 11 11 10 10 10 12 11 10 10 10 10 10 9 8 8 8 8 7 7 6 3 3 4 4 6 6 6 9 9 6 9 10 9
4 3 4 7 9 7 2 4 3 3 4 7 7 4 5 2 4 3 5 2 0 3 1 2 2 2 2 1 2 2 2 4 5 3 5 6 5 5 5 5 6 5 5 5 4 4 4 6 7 8 9 10 11 11 11 11 11 10 10 11 11 10 10 10 11 11 10 10 11 9 7 6 6 6 5 4 4 2 4 5 5 4 4 7 8 7 9
2 3 5 6 8 8 8 7 7 6 7 4 3 1 2 5 5 4 3 2 4 2 2 1 1 2 1 2 4 4 4 3 3 6 5 4 3 5 6 5 5 5 5 5 5 5 6 7 7 9 10 10 11 12 13 14 13 12 11 10 10 10 9 9 10 10 10 7 8 11 11 7 6 6 6 6 7 5 5 4 4 5 6 5 3 7 8
Wind_Direction
338 339 339 338 337 337 337 339 336 340 338 337 351 321 263 300 27 48 348 320 267 269 93 316 78 48 79 176 101 1 61 11 14 7 336 85 325 122 7 24 285 19 354 190 190 186 73 321 157 97 88 61 35 47 344 346 289 289 150 213 114 292 247 219 57 69 97 126 67 23 341 307 270 253 276 273 226 238 228 225 266 270 228 217 156 109 126
338 339 340 338 337 337 338 336 338 338 354 328 310 295 292 36 346 114 93 274 314 283 348 111 74 84 119 43 83 35 35 357 44 31 36 3 51 27 56 110 360 86 320 216 150 161 176 102 129 139 81 93 25 36 19 329 23 342 28 346 47 251 186 279 174 215 185 169 189 203 194 226 242 228 204 292 298 295 294 322 305 241 251 241 187 168 160
338 340 341 338 338 338 337 336 335 338 340 323 308 310 337 306 165 60 109 211 287 323 39 73 118 109 80 64 103 129 97 27 11 12 40 5 15 247 62 15 53 70 348 75 50 156 307 136 18 56 89 93 81 60 21 10 47 24 11 342 324 285 288 225 227 199 197 188 192 194 181 208 214 219 68 243 268 275 274 249 221 265 259 319 275 114 126
339 341 342 340 339 339 337 334 334 335 341 314 273 294 285 290 273 132 114 332 117 91 8 29 66 134 162 152 47 3 111 113 54 325 86 355 50 18 48 20 304 128 207 156 199 150 188 217 148 185 132 127 93 54 61 37 42 17 335 326 292 295 308 322 23 359 11 30 24 26 294 164 209 162 244 283 234 268 268 269 259 234 222 263 89 131 134
340 344 344 342 340 340 337 335 333 335 338 329 306 285 286 344 356 352 46 141 80 79 356 97 317 59 340 9 325 63 344 72 124 337 24 32 4 58 3 4 259 136 250 131 126 19 137 100 167 167 137 99 106 90 64 86 44 334 297 345 306 262 247 158 249 351 13 13 8 20 339 200 97 122 155 231 248 264 244 224 240 333 282 146 144 134 142
343 346 345 344 342 340 339 337 336 335 334 328 277 307 346 287 63 337 25 318 24 15 89 349 74 66 299 76 264 20 55 25 56 153 34 311 320 300 132 351 3 21 5 134 137 115 89 182 117 113 103 154 151 160 157 99 61 288 309 320 315 302 248 120 269 188 35 347 16 7 337 356 41 312 324 224 218 237 236 251 334 295 259 177 155 146 136
345 348 346 345 344 342 341 338 338 339 331 329 269 327 53 25 74 56 286 283 58 28 45 356 62 70 18 92 339 76 23 86 20 352 77 351 89 320 130 59 50 34 53 303 98 62 190 140 95 208 165 207 166 171 157 152 212 234 14 354 358 290 265 64 252 286 249 250 264 102 290 256 251 240 217 257 252 216 253 235 261 269 238 125 145 134 133
347 347 347 347 345 345 343 341 342 339 338 319 7 24 341 34 337 91 110 76 81 95 162 105 218 90 238 252 52 8 5 55 50 70 337 85 69 289 68 91 89 88 175 242 141 102 360 15 171 82 314 139 267 317 21 70 134 289 69 316 106 271 78 65 284 266 214 221 235 232 258 283 253 224 234 236 245 249 243 277 81 153 132 142 140 133 124
348 348 349 349 348 346 345 345 345 340 343 332 22 55 14 3 357 343 314 79 37 343 53 228 171 131 94 82 82 13 47 56 27 56 2 15 71 11 66 50 103 52 74 70 81 48 46 30 50 81 357 348 64 330 101 319 8 28 300 228 110 260 252 144 251 252 222 178 224 204 230 243 253 228 229 221 215 219 181 222 175 219 176 147 137 135 135
347 350 350 350 350 348 348 350 348 348 333 360 360 32 354 312 125 270 292 54 210 254 128 160 243 77 49 26 79 324 77 73 285 148 62 39 23 20 355 356 321 103 95 73 44 18 18 29 10 10 2 330 354 205 0 316 334 11 301 59 264 244 251 219 214 234 257 160 204 197 205 228 229 228 216 212 214 245 213 107 64 353 159 158 165 148 130
347 350 351 351 352 350 351 353 352 352 350 23 356 15 8 360 340 314 302 285 89 359 304 66 22 57 108 126 118 345 75 70 84 321 112 216 81 19 347 335 302 68 79 35 5 333 341 342 339 303 260 301 282 280 240 260 260 320 298 230 234 276 272 256 223 238 237 131 203 171 227 225 229 13 188 196 208 180 166 168 145 109 204 172 162 132 145
347 349 351 352 353 352 352 354 353 355 357 337 316 4 17 346 311 275 299 290 103 261 34 42 32 107 68 83 36 69 81 54 109 277 90 45 74 73 71 72 305 121 57 311 296 231 247 241 236 241 280 265 282 281 283 277 241 199 258 279 308 203 227 248 243 230 234 145 167 218 225 225 81 76 64 67 70 162 197 94 112 103 104 103 116 132 151
348 349 350 352 353 354 353 354 353 351 355 340 325 16 360 350 304 308 323 301 79 15 91 96 72 66 72 65 61 65 57 86 64 57 78 98 108 76 31 42 30 62 298 335 181 246 225 157 200 271 191 230 223 246 230 207 239 208 247 228 256 222 208 234 220 238 248 199 204 221 210 86 107 81 134 64 55 72 118 142 127 96 137 142 124 110 108
349 349 350 351 352 354 355 355 352 351 350 348 329 10 4 355 347 336 354 329 88 59 41 146 140 95 99 87 84 105 143 85 68 36 103 40 97 72 71 27 52 0 306 231 223 239 187 199 181 195 177 207 182 211 149 308 217 237 231 208 234 287 268 258 223 211 249 217 222 209 88 180 132 176 151 179 201 181 194 193 170 164 125 153 148 149 157
350 349 350 350 350 351 354 355 354 350 348 343 306 341 13 1 346 336 326 307 339 94 288 11 72 108 83 110 209 179 176 117 204 122 63 301 101 59 54 77 4 15 53 270 189 218 270 251 226 207 166 199 213 159 155 200 165 246 245 237 220 231 255 160 258 195 239 231 224 210 201 232 197 165 161 187 167 185 198 289 144 165 168 148 154 173 178
350 348 351 349 348 349 354 356 354 351 351 342 312 2 35 6 329 308 316 313 326 227 69 33 7 231 196 138 222 295 323 221 94 133 162 171 117 132 154 137 89 277 239 256 281 280 248 250 248 237 239 220 79 131 201 152 159 160 212 210 223 223 232 288 245 237 190 238 255 229 232 190 68 128 133 110 108 133 88 226 207 178 167 184 160 164 172
349 348 349 348 346 348 352 356 353 352 349 358 335 335 32 13 351 341 328 318 283 42 80 79 342 349 255 157 196 207 223 323 209 256 204 162 169 173 154 208 157 262 305 285 231 241 228 227 266 276 120 77 231 301 86 236 193 163 165 214 209 208 207 218 227 247 223 217 228 247 250 174 137 131 137 136 146 121 215 214 207 145 161 157 175 178 162
350 343 344 346 346 346 350 353 354 351 348 349 330 321 5 25 354 327 305 305 322 90 77 49 279 266 351 2 14 42 304 219 243 174 262 81 189 197 142 240 223 140 303 271 277 251 262 269 251 243 237 84 6 334 260 137 218 192 183 196 186 196 209 207 234 222 234 250 231 231 152 104 144 143 135 129 142 206 216 226 112 157 128 144 132 134 128
346 340 341 347 347 345 345 349 352 351 347 348 328 279 103 20 356 335 313 294 297 27 83 41 360 311 335 290 348 2 356 346 330 286 201 191 150 96 295 228 317 252 178 267 280 277 264 240 293 296 269 145 193 258 74 220 229 173 177 198 206 201 215 211 224 233 231 212 239 237 91 99 131 135 135 129 152 196 207 79 102 100 112 129 135 131 123
345 339 339 343 345 342 341 344 350 348 346 348 337 312 357 40 16 356 341 337 334 311 86 80 31 305 109 280 265 218 169 199 222 285 295 314 54 264 210 225 179 278 225 238 251 267 285 275 296 165 250 232 201 340 256 245 25 282 210 232 255 207 213 224 207 219 237 235 242 232 225 149 194 131 144 159 222 75 96 138 128 142 119 142 131 139 138
346 338 337 339 339 339 337 338 349 346 343 342 333 308 307 107 2 2 330 321 312 298 107 64 309 321 303 264 284 316 314 343 349 289 319 9 58 253 250 359 71 190 287 236 272 260 268 260 211 246 323 316 105 219 258 251 177 191 239 226 250 343 264 228 227 226 246 218 224 230 24 125 148 169 236 164 63 126 128 127 122 77 145 158 150 136 104
344 336 333 334 332 333 336 335 348 342 342 337 327 287 290 82 29 24 326 299 284 291 347 4 333 299 340 324 340 335 316 321 29 338 315 332 156 259 16 219 271 296 360 300 261 240 223 262 309 263 230 219 159 241 247 234 233 148 185 243 237 193 253 15 312 347 268 293 50 89 147 141 155 125 83 91 109 119 118 318 168 168 148 102 304 121 132
338 335 329 328 327 329 332 331 338 339 338 338 327 296 325 352 3 8 295 281 241 254 276 253 209 235 235 265 270 296 279 282 290 274 313 279 278 205 252 281 214 39 288 281 296 313 315 307 256 273 264 250 234 221 199 245 263 160 201 189 257 89 287 353 275 269 292 267 135 95 103 142 132 110 122 127 132 125 159 159 176 157 97 153 61 113 128
335 328 327 321 322 326 325 325 331 334 333 330 324 322 338 354 332 314 274 256 286 293 214 214 222 197 202 172 174 192 231 233 247 289 72 293 269 224 189 186 43 231 246 320 343 291 296 291 289 283 258 271 251 240 228 206 230 192 222 191 210 222 203 224 233 247 24 236 172 186 165 147 165 131 124 137 141 150 158 155 220 134 140 133 105 118 116
327 325 320 322 319 323 324 318 322 326 336 318 304 262 256 252 12 341 313 320 292 301 302 170 174 63 75 64 259 239 227 299 185 218 218 200 255 286 336 53 346 336 338 330 253 260 243 261 255 241 256 252 284 260 323 296 229 193 227 220 195 201 184 233 227 239 224 257 34 355 215 178 223 168 158 154 144 143 160 144 133 123 122 127 121 159 194
321 322 321 320 322 316 320 315 314 322 326 322 312 317 323 354 2 296 271 258 267 279 284 267 125 190 86 242 204 59 49 250 229 209 227 235 226 248 280 209 237 196 282 263 269 262 276 262 252 275 282 254 229 252 241 273 324 124 253 346 16 43 134 223 191 230 224 218 158 196 230 242 223 218 209 211 193 183 188 173 152 161 167 163 169 198 264
320 320 322 320 317 316 308 310 306 314 311 297 289 284 301 322 313 307 332 354 320 228 229 276 106 152 164 218 50 269 225 238 222 224 212 223 240 230 231 249 257 240 246 255 233 261 266 265 288 290 307 325 352 302 289 258 233 231 234 196 166 202 215 209 218 224 224 232 225 183 200 208 211 219 234 211 243 182 187 185 201 181 176 169 181 174 189
322 321 320 321 312 310 306 300 301 311 278 277 269 279 278 284 34 311 277 316 318 318 322 316 309 67 346 140 203 209 150 200 235 224 234 225 224 237 248 246 239 252 278 9 327 280 258 258 252 97 319 3 6 273 279 297 287 261 262 244 57 230 255 240 236 232 243 29 1 255 222 261 0 228 203 211 194 201 200 204 211 184 173 176 186 223 181
324 324 322 320 316 307 294 290 293 294 305 299 277 249 201 233 214 96 297 263 294 300 292 285 308 244 229 106 185 190 151 274 218 235 232 226 228 233 246 248 256 254 138 187 212 251 268 279 4 283 7 169 245 293 2 256 241 243 325 355 94 147 329 300 285 294 279 230 324 271 239 270 143 197 173 197 183 200 204 200 207 224 213 195 202 209 270
326 327 317 314 309 295 284 287 293 276 291 275 250 242 224 144 193 227 76 330 322 304 278 281 258 115 110 168 166 15 120 214 213 228 242 244 214 245 261 227 243 264 269 269 263 259 268 274 241 194 153 140 165 356 302 288 275 289 76 201 21 20 29 315 305 279 276 321 316 303 286 270 239 160 190 183 181 207 215 212 199 196 217 262 222 229 224
328 317 314 303 294 284 278 275 301 291 282 261 250 264 251 225 116 177 102 256 339 293 294 273 275 66 179 84 319 209 233 301 249 250 106 322 6 309 107 265 252 235 250 216 203 247 266 255 256 205 138 168 153 204 271 283 287 338 227 231 249 262 244 248 256 256 269 269 259 245 250 237 240 166 203 202 194 210 218 221 203 201 323 244 224 218 234
324 313 307 298 278 266 263 261 266 253 251 289 328 357 7 14 27 31 79 272 273 270 277 286 254 201 154 156 145 260 274 259 284 203 60 336 38 139 268 260 344 335 305 3 313 284 250 252 251 193 195 154 162 218 218 244 250 253 282 317 312 279 248 255 237 238 244 246 262 244 233 232 218 212 205 204 202 202 216 221 223 176 146 273 279 254 243
318 309 305 295 270 251 244 239 239 259 315 341 297 286 44 32 29 313 224 269 267 262 288 286 300 348 239 104 143 165 111 219 31 32 332 299 336 293 258 181 216 150 73 240 218 272 323 97 321 242 135 148 206 220 238 235 247 262 286 275 214 240 250 242 245 252 252 243 226 242 236 222 222 215 209 197 199 202 209 218 210 160 169 187 213 233 261
314 336 323 340 253 262 248 247 264 285 270 269 207 142 124 188 183 224 301 286 288 294 258 272 278 278 141 120 217 121 265 287 256 191 229 202 230 260 182 154 281 274 177 244 306 230 347 32 213 197 144 194 222 260 248 248 273 289 269 261 278 287 271 257 249 245 243 247 246 250 260 258 240 220 217 206 207 211 214 216 213 207 212 225 225 218 217
316 289 349 297 315 302 285 259 237 227 252 242 84 85 117 166 340 315 282 311 290 220 222 220 269 281 247 187 283 106 195 277 264 137 318 60 260 308 331 278 110 250 210 328 267 246 286 242 36 235 220 168 202 228 244 251 227 226 246 266 275 277 264 258 253 255 257 254 239 234 240 246 232 211 211 216 211 200 203 209 212 212 218 225 233 233 222
292 255 252 258 280 276 257 210 231 240 237 1 38 93 116 177 206 234 277 280 283 311 280 347 257 287 327 328 351 96 213 243 4 346 9 352 217 132 246 320 267 121 144 217 239 195 226 179 210 246 189 195 222 228 235 248 278 276 279 291 301 281 280 280 283 271 260 251 250 247 237 236 234 218 214 217 217 212 214 215 209 218 225 227 220 221 222
302 309 281 274 258 235 233 73 68 23 37 48 74 91 170 239 214 238 224 239 213 248 288 314 272 339 358 1 15 79 329 308 35 261 117 289 320 316 269 221 262 33 227 231 221 227 147 167 244 254 220 232 234 213 233 258 246 262 275 302 301 292 277 275 276 284 264 242 234 234 237 236 230 223 216 217 210 209 214 216 210 211 216 224 229 224 219
296 292 263 233 232 243 176 92 33 99 117 100 138 196 185 208 226 195 197 221 184 203 241 249 269 15 132 319 359 76 284 10 354 296 167 293 286 218 72 312 16 252 231 225 231 13 181 216 232 241 256 242 261 251 227 217 237 246 290 306 320 307 292 278 270 261 260 250 240 240 243 238 233 224 223 215 209 213 212 213 217 218 214 216 222 225 215
268 240 234 234 250 358 15 70 86 95 281 228 216 253 199 202 248 227 211 169 167 231 201 242 272 22 330 310 69 37 346 330 321 321 319 96 292 310 194 291 176 230 287 259 130 349 246 224 225 239 257 212 219 169 136 82 300 350 338 339 329 326 319 289 272 268 264 266 277 266 243 237 229 225 218 220 221 220 214 212 214 215 214 220 219 213 220
237 241 256 236 14 54 69 112 151 220 238 252 215 262 248 194 248 241 147 220 213 183 174 210 82 343 31 344 335 25 63 307 324 338 354 12 354 319 318 333 346 291 288 298 108 219 259 278 292 261 274 355 47 32 20 22 5 6 346 358 329 326 311 287 282 272 269 268 260 253 239 233 233 230 221 221 217 220 216 210 213 212 209 209 205 209 215
206 259 268 31 59 55 70 152 192 230 239 229 201 212 252 241 221 281 249 252 257 136 188 356 199 217 151 253 253 1 102 255 170 123 302 292 155 280 269 248 209 278 290 316 9 230 269 269 274 286 43 64 87 276 112 78 90 105 33 321 321 343 319 306 278 272 269 265 260 273 317 317 244 203 228 240 240 248 245 226 210 209 210 207 206 210 205
11 340 16 311 338 35 206 204 244 251 227 232 266 257 235 265 200 211 293 267 177 99 13 292 228 357 9 349 357 50 131 354 298 309 308 302 106 287 315 327 293 292 313 93 262 298 275 283 280 332 82 32 17 21 16 358 356 336 312 286 333 324 301 304 310 294 280 268 272 267 204 245 299 316 259 229 218 217 221 212 199 201 205 207 203 203 207
270 275 281 257 206 202 197 250 181 251 294 257 248 274 249 236 306 302 233 284 318 114 186 250 77 271 77 282 165 45 22 38 274 184 238 352 108 233 284 280 274 272 285 336 284 286 280 285 317 10 34 49 19 19 321 350 347 329 318 323 326 319 326 317 311 305 300 294 300 273 253 262 279 257 219 315 319 288 234 212 205 200 197 198 199 204 200
237 236 229 213 244 192 237 267 201 148 310 243 212 231 227 228 159 235 249 254 256 80 275 316 42 335 301 165 301 166 131 184 255 289 249 141 248 237 231 259 268 209 251 268 267 266 302 61 42 22 7 33 9 12 5 347 328 329 326 333 326 317 312 315 316 325 330 329 318 305 283 260 239 230 233 201 220 281 269 219 204 204 195 196 195 200 196
234 205 286 269 254 321 68 319 235 190 235 208 238 271 311 68 254 274 30 149 269 98 194 155 7 316 305 93 224 52 317 359 121 271 291 284 265 292 313 300 146 224 279 292 290 329 58 123 153 132 31 10 355 349 350 337 330 330 321 321 328 329 325 316 309 306 302 312 323 325 309 293 266 266 266 229 199 203 265 256 212 191 191 191 194 190 185
217 209 195 196 259 239 217 234 176 245 246 249 249 257 309 49 280 339 56 21 306 349 8 25 349 292 297 56 308 350 209 254 269 232 284 275 278 275 208 240 304 327 311 300 357 330 337 331 5 13 4 344 350 338 329 333 328 327 325 322 321 320 317 315 312 311 311 313 321 319 329 330 320 300 277 257 218 176 245 276 240 194 187 187 188 182 178
276 304 296 294 275 233 206 237 215 228 303 244 236 294 279 338 1 328 26 333 314 61 13 75 294 352 310 340 282 202 222 170 282 259 236 284 317 316 175 272 286 235 244 326 323 297 9 42 33 5 351 339 329 331 325 324 323 327 324 322 317 320 324 320 320 314 318 319 317 313 317 335 326 317 305 286 250 210 194 272 267 194 180 185 179 181 166
231 256 265 249 241 217 216 231 247 244 214 258 304 328 331 322 278 216 11 121 69 1 59 305 291 230 249 157 234 274 285 219 279 297 353 315 288 306 334 303 286 319 59 348 330 0 352 15 359 350 339 337 333 330 333 330 329 327 325 323 323 323 323 321 316 321 325 317 315 309 311 309 284 334 328 301 286 225 207 205 261 258 185 181 179 178 170
314 285 225 243 254 265 263 279 293 270 315 360 17 25 345 335 265 289 120 125 89 12 332 318 1 318 340 356 316 321 323 40 292 317 279 253 282 275 257 296 352 341 345 6 354 3 358 2 355 348 341 339 338 333 333 331 336 330 326 319 317 319 316 313 317 315 315 311 307 306 302 306 305 293 346 359 308 275 233 211 205 234 246 182 182 174 177
234 246 255 246 263 261 249 265 259 257 61 10 319 253 196 300 345 3 284 235 215 242 215 109 293 301 310 310 320 324 292 301 331 323 307 301 314 326 326 329 327 326 351 13 356 2 4 350 346 347 351 345 337 338 333 331 333 326 320 316 316 317 311 308 306 307 305 304 300 302 308 307 297 300 287 218 245 245 292 278 185 182 224 220 188 181 181
242 262 256 252 256 284 333 260 262 263 234 198 221 194 212 220 221 212 258 223 160 255 231 338 355 331 320 337 283 280 4 7 295 314 333 337 359 330 337 329 354 4 1 8 8 13 348 358 2 356 346 344 342 337 332 328 323 326 316 317 318 315 315 319 318 311 313 323 314 299 289 284 284 278 277 264 229 249 254 233 188 191 173 210 225 184 169
231 235 249 231 238 250 259 279 293 301 324 357 3 353 190 222 235 147 176 233 222 258 351 350 335 344 319 312 342 336 295 278 320 327 344 33 24 338 2 359 357 15 359 355 12 354 11 28 3 355 349 343 334 333 330 325 321 315 315 312 309 313 320 319 314 307 306 296 291 304 291 277 277 272 270 265 261 239 227 230 216 172 194 242 229 167 153